Temp
21 21 20 20 20 20 20 20 20 20 20 19 19 19 19 19 19 19 18 17 17 17 17 17 17 16 15 15 15 15 15 15 15 15 15 15 16 16 16 16 16 16 16 16 16 16 16 16 16 16 16 16 16 16 16 16 16 16 16 16 16 15 15
20 20 20 20 21 21 20 20 20 19 19 19 19 19 19 19 19 18 18 17 17 17 17 17 16 16 15 15 15 15 15 15 15 15 15 15 15 15 16 16 16 16 16 15 16 16 16 16 15 16 16 16 16 16 16 16 15 15 16 16 16 16 16
20 20 20 20 21 21 20 20 20 19 19 19 19 19 19 19 18 18 17 17 17 16 16 16 16 15 15 15 15 15 14 14 14 14 15 15 15 15 15 15 15 15 15 15 15 15 15 15 15 15 15 15 15 15 16 16 16 15 16 16 16 16 16
20 20 20 20 20 20 20 20 20 19 19 19 19 19 19 18 18 17 17 17 16 16 16 15 15 15 15 15 15 15 14 14 14 14 14 14 14 15 15 15 15 15 15 15 15 15 15 15 15 15 15 15 15 15 15 15 16 16 16 16 16 16 16
20 20 20 20 20 21 21 21 20 19 19 19 19 18 18 18 17 17 17 17 16 16 15 15 15 15 15 15 15 15 15 14 14 14 14 15 15 15 15 15 15 15 15 15 15 15 15 15 15 15 15 15 15 15 15 15 16 16 16 16 16 16 16
20 20 20 20 20 21 21 21 20 19 19 19 19 19 18 18 17 17 17 17 16 16 15 15 15 15 15 15 15 15 15 15 15 15 15 15 15 15 15 15 15 15 15 15 15 15 15 15 15 15 15 15 15 15 15 15 16 16 16 16 16 16 16
20 20 20 20 21 21 21 20 20 20 19 19 19 19 18 18 17 17 17 16 16 16 15 15 15 15 15 15 15 15 15 15 15 15 15 15 15 15 15 15 15 15 15 15 15 15 15 15 15 15 15 15 15 15 15 16 16 15 15 15 15 15 15
20 20 20 20 21 21 20 20 20 20 19 19 19 18 18 18 17 17 17 16 16 15 15 15 15 14 15 15 15 15 15 15 15 15 15 15 15 15 15 15 15 15 15 15 14 14 14 14 14 14 14 14 15 15 15 15 16 15 15 15 15 15 15
20 20 20 20 21 21 20 20 20 19 19 19 18 18 18 17 17 17 16 16 15 15 15 15 14 14 14 15 15 15 15 15 15 15 15 15 15 15 15 15 15 15 15 14 14 14 14 14 14 14 14 14 14 14 15 15 15 15 15 15 15 15 15
20 20 20 21 20 20 20 20 20 19 19 19 18 18 17 17 17 17 16 16 15 15 15 15 14 14 14 14 15 15 15 15 14 15 15 15 15 15 14 15 15 15 14 14 14 14 13 13 13 13 13 13 14 14 14 15 15 15 15 15 15 15 15
20 20 21 21 20 20 20 20 19 19 19 18 18 18 17 17 17 16 16 16 15 15 15 14 14 14 14 14 15 15 15 14 14 14 14 14 15 14 14 14 14 14 14 14 14 13 13 13 13 13 13 13 13 14 14 14 14 14 15 15 14 14 14
20 20 21 20 20 20 20 19 19 19 18 18 18 17 17 17 16 16 16 16 15 15 15 14 14 14 14 14 15 15 14 14 14 14 14 14 14 14 14 14 14 15 14 14 14 14 13 13 13 13 13 13 13 13 14 14 14 14 14 14 14 14 14
20 20 20 20 20 20 19 19 19 19 18 18 17 17 17 16 16 16 16 16 16 15 14 14 14 14 14 14 15 15 14 14 14 14 14 14 14 14 14 14 14 15 14 14 14 13 13 13 13 13 13 13 13 13 14 14 14 14 14 14 14 14 14
20 20 20 20 20 19 19 19 19 18 18 17 17 17 17 16 16 16 16 16 16 15 14 14 14 14 14 14 15 15 14 14 14 14 14 14 14 14 14 14 14 14 14 14 14 13 13 13 13 13 13 13 13 13 13 14 14 14 14 14 14 13 14
20 20 20 20 20 19 19 19 19 18 18 18 17 17 17 17 16 16 16 16 16 15 14 14 14 14 14 15 15 15 14 14 14 14 14 14 14 14 14 14 14 14 14 14 14 13 13 13 13 13 13 13 13 13 13 13 14 14 14 14 13 13 14
20 20 20 20 19 19 19 19 19 19 19 18 18 17 17 17 17 16 16 16 16 15 14 14 14 14 15 15 15 14 14 14 14 14 14 14 14 14 14 14 14 14 14 14 14 13 13 13 13 13 13 13 13 13 13 13 13 13 13 13 13 13 14
20 19 20 20 19 19 19 19 19 19 19 19 18 17 17 17 17 16 16 16 16 15 14 14 14 14 15 15 15 15 14 14 14 14 14 14 14 14 14 14 14 14 14 14 14 13 13 13 13 13 13 13 13 13 13 13 12 12 13 13 13 13 13
20 20 20 20 19 19 19 19 19 19 19 18 18 17 17 16 16 16 16 16 16 15 15 14 14 14 14 14 14 15 15 14 14 14 14 14 14 14 14 14 14 14 14 14 14 13 13 13 13 13 13 13 13 13 12 12 12 12 13 13 13 13 14
20 20 20 20 19 19 19 19 19 19 18 18 18 17 17 16 16 16 16 16 16 15 15 14 14 14 14 14 14 15 15 14 14 14 14 14 14 14 14 14 14 14 14 14 14 13 13 13 13 13 13 13 13 13 12 12 12 12 13 13 14 14 14
20 20 20 19 19 19 19 19 19 18 18 18 17 17 17 16 16 16 16 16 15 15 15 15 15 15 15 15 14 15 15 14 15 14 14 14 14 14 14 14 14 14 14 14 14 14 13 13 13 13 13 13 13 13 12 12 12 12 13 13 14 14 15
20 20 20 20 20 19 19 19 19 18 18 18 18 17 17 16 16 16 16 15 15 15 15 15 15 15 15 14 14 15 15 15 15 14 14 14 14 14 14 14 14 14 14 14 14 14 13 13 14 13 13 13 13 12 12 12 12 12 12 13 14 14 14
20 20 20 20 20 20 19 19 19 19 18 18 18 17 17 16 16 16 16 15 15 15 15 15 15 15 14 14 14 15 15 14 14 14 14 14 14 14 14 14 14 14 14 14 14 14 14 13 14 14 13 13 13 12 12 11 11 12 12 13 14 14 14
21 21 21 20 20 20 19 19 19 19 18 18 17 17 17 16 16 16 16 15 15 15 15 15 15 14 14 14 14 15 15 15 14 14 14 14 14 14 14 14 14 14 14 15 15 14 14 14 14 14 14 13 13 12 12 12 11 12 12 13 13 14 14
21 20 20 20 20 20 20 19 19 18 18 18 17 17 17 16 16 16 16 16 16 15 15 15 15 14 14 14 14 14 14 15 15 14 14 14 14 14 14 14 14 14 15 15 14 15 14 14 14 14 14 13 13 13 12 12 12 12 12 12 13 13 13
20 20 20 20 20 20 19 19 18 18 18 18 17 17 17 16 16 16 16 16 15 15 15 15 15 14 14 14 14 14 14 14 14 14 14 14 14 14 14 14 14 14 15 14 14 14 15 14 14 14 13 13 13 13 13 12 12 12 12 12 12 12 12
19 19 20 20 19 19 19 19 18 18 18 18 17 17 17 17 16 16 16 16 15 15 15 15 15 14 14 14 14 14 14 14 14 14 14 14 14 14 14 14 14 14 14 14 14 14 14 14 14 13 13 13 13 13 13 13 12 12 12 12 12 12 12
20 20 20 20 19 19 19 19 18 18 18 18 17 17 17 17 17 16 16 16 16 16 15 15 15 15 14 14 14 14 14 14 14 14 14 14 14 14 14 14 14 14 14 14 14 14 14 14 14 14 14 14 13 13 13 13 12 12 12 12 12 12 13
20 20 20 19 19 19 19 18 18 18 18 17 17 17 17 17 17 16 16 16 16 16 16 15 15 15 15 15 14 14 14 14 14 14 14 14 14 14 14 14 14 14 14 14 14 14 14 14 14 14 14 14 14 13 13 13 13 12 12 12 12 12 12
20 20 20 19 19 19 19 18 18 18 18 17 17 17 17 17 16 16 16 16 16 16 16 15 15 15 15 15 15 14 14 14 14 14 14 14 14 14 14 14 14 14 14 14 14 14 14 14 14 14 14 14 14 14 13 13 13 13 12 12 12 12 12
20 19 19 19 19 19 19 19 18 18 17 17 17 17 17 16 16 16 16 16 16 16 16 15 15 15 15 15 15 14 14 14 14 14 14 14 14 14 14 14 14 14 14 14 14 14 14 14 13 13 13 14 14 14 14 13 13 13 13 13 12 12 12
19 19 19 19 19 19 19 19 18 18 17 17 17 17 17 16 16 16 16 16 16 16 16 15 15 15 15 15 15 15 14 14 14 14 14 14 14 14 14 14 14 14 14 14 14 14 14 14 13 13 13 13 14 14 14 14 13 13 13 13 13 12 12
20 19 19 19 19 19 18 18 18 18 17 17 17 17 17 16 16 16 15 15 15 16 16 16 15 15 15 15 15 15 14 14 14 14 14 14 14 14 14 14 13 13 14 14 14 14 14 14 13 13 13 13 13 14 14 14 13 13 13 13 13 13 13
19 19 19 19 19 18 18 18 18 17 17 17 17 17 17 16 16 15 15 15 15 15 16 16 15 15 15 15 15 15 14 14 14 14 14 14 14 14 14 14 13 13 14 14 14 14 14 14 13 13 13 14 14 13 13 13 13 13 13 13 13 13 13
19 19 19 18 18 18 18 18 18 17 17 17 17 17 16 16 16 15 15 15 15 15 16 16 15 15 15 15 14 14 14 14 14 14 14 14 14 14 14 14 13 13 13 13 13 13 14 14 14 13 13 13 13 13 13 13 13 13 13 13 13 13 13
19 19 18 18 18 18 18 18 17 17 17 17 16 16 16 16 15 15 15 15 15 15 15 15 15 15 15 14 14 14 14 14 14 14 14 14 14 14 13 13 13 13 13 13 13 13 13 13 13 13 13 13 13 13 13 13 13 13 13 13 13 13 13
19 18 18 18 18 18 18 18 17 17 16 16 16 16 16 16 15 15 15 15 15 15 15 15 15 14 14 14 14 14 14 14 14 14 14 14 14 14 14 13 13 13 13 13 13 13 13 13 13 13 13 13 13 13 13 13 13 13 13 13 13 13 13
18 18 18 18 17 17 17 17 17 16 16 16 16 16 16 15 15 15 15 15 15 14 14 14 14 14 14 14 14 14 14 14 14 14 14 14 14 14 13 13 13 13 13 13 13 13 13 13 13 13 13 13 13 13 13 13 13 13 13 13 12 12 12
18 18 17 17 17 17 17 17 16 16 16 16 16 15 15 15 15 15 15 15 14 14 14 14 14 14 14 14 14 14 14 14 14 14 14 14 14 14 13 13 13 13 13 13 13 13 13 13 13 13 13 13 13 13 13 13 13 13 13 13 13 12 12
Height
1538 1539 1540 1541 1542 1543 1543 1543 1543 1542 1542 1541 1541 1541 1541 1540 1539 1539 1538 1537 1536 1535 1533 1532 1530 1529 1527 1525 1523 1521 1519 1517 1516 1514 1512 1510 1509 1509 1509 1508 1508 1508 1509 1510 1511 1512 1512 1512 1511 1511 1511 1510 1510 1509 1509 1508 1506 1506 1508 1508 1508 1509 1510
1537 1538 1539 1540 1541 1541 1541 1541 1541 1540 1540 1540 1540 1540 1539 1539 1538 1537 1536 1536 1535 1533 1532 1530 1529 1527 1525 1524 1522 1520 1518 1516 1514 1513 1511 1509 1508 1508 1508 1507 1507 1507 1507 1508 1509 1509 1509 1508 1507 1507 1507 1506 1505 1504 1503 1503 1503 1503 1505 1505 1506 1506 1506
1536 1537 1538 1539 1539 1539 1539 1538 1538 1538 1538 1538 1538 1539 1538 1537 1536 1535 1535 1534 1533 1532 1530 1529 1527 1525 1524 1522 1521 1519 1517 1515 1513 1512 1511 1509 1508 1507 1507 1506 1505 1505 1505 1506 1506 1505 1505 1504 1503 1503 1503 1502 1501 1500 1498 1498 1499 1500 1501 1502 1503 1503 1503
1535 1536 1536 1537 1536 1536 1536 1535 1536 1536 1536 1537 1537 1537 1536 1535 1534 1534 1533 1533 1531 1530 1529 1527 1525 1524 1522 1521 1520 1518 1516 1515 1513 1511 1510 1508 1507 1506 1505 1505 1504 1504 1504 1503 1503 1502 1501 1500 1498 1498 1497 1497 1498 1497 1495 1494 1495 1495 1497 1498 1499 1499 1499
1533 1534 1534 1534 1533 1534 1534 1533 1534 1534 1535 1536 1535 1535 1534 1533 1533 1532 1532 1531 1530 1529 1527 1526 1524 1523 1521 1520 1518 1517 1515 1514 1512 1510 1509 1507 1506 1505 1504 1503 1503 1502 1501 1500 1499 1498 1497 1496 1495 1494 1493 1493 1494 1493 1490 1489 1489 1490 1491 1492 1493 1494 1494
1531 1531 1532 1532 1532 1532 1532 1532 1532 1532 1533 1534 1533 1533 1532 1532 1531 1530 1530 1529 1528 1527 1525 1524 1523 1521 1520 1519 1517 1516 1514 1512 1511 1509 1508 1506 1504 1503 1502 1501 1500 1499 1498 1497 1495 1494 1493 1492 1491 1490 1490 1489 1489 1488 1485 1484 1484 1485 1486 1487 1487 1488 1489
1528 1529 1530 1531 1531 1531 1531 1532 1532 1531 1532 1532 1532 1532 1531 1530 1530 1528 1528 1527 1525 1524 1523 1522 1521 1519 1518 1517 1516 1514 1512 1511 1509 1507 1506 1504 1503 1501 1500 1498 1497 1496 1495 1493 1492 1491 1489 1488 1487 1487 1486 1485 1484 1482 1480 1479 1478 1480 1482 1483 1482 1483 1484
1527 1528 1529 1529 1529 1530 1531 1531 1531 1531 1530 1531 1530 1530 1529 1529 1528 1527 1526 1525 1524 1523 1521 1520 1519 1518 1517 1515 1514 1513 1511 1509 1508 1506 1504 1503 1501 1499 1498 1496 1495 1494 1492 1491 1490 1489 1487 1486 1485 1484 1483 1482 1480 1478 1475 1473 1473 1474 1475 1476 1477 1478 1479
1526 1527 1527 1528 1529 1529 1530 1530 1530 1530 1529 1529 1529 1528 1528 1527 1526 1526 1525 1524 1523 1521 1520 1519 1518 1517 1515 1514 1513 1511 1509 1507 1506 1504 1503 1501 1499 1497 1496 1494 1493 1491 1490 1488 1487 1487 1486 1484 1482 1481 1480 1478 1476 1474 1472 1470 1469 1468 1469 1470 1471 1472 1473
1524 1525 1525 1527 1527 1528 1529 1528 1528 1528 1527 1527 1527 1527 1526 1525 1525 1524 1523 1523 1522 1520 1519 1517 1517 1516 1515 1513 1512 1510 1508 1506 1504 1503 1501 1499 1498 1496 1494 1493 1491 1489 1488 1486 1485 1484 1483 1482 1480 1478 1476 1474 1472 1470 1468 1466 1465 1465 1465 1465 1466 1466 1467
1522 1524 1524 1525 1526 1526 1527 1527 1527 1526 1526 1526 1526 1525 1524 1524 1523 1523 1522 1521 1520 1518 1517 1516 1516 1515 1514 1512 1511 1509 1507 1505 1503 1501 1500 1498 1496 1495 1493 1491 1490 1488 1486 1484 1483 1482 1481 1479 1477 1474 1472 1470 1468 1466 1464 1462 1462 1461 1461 1461 1461 1461 1461
1521 1522 1523 1524 1524 1524 1525 1525 1525 1524 1524 1524 1524 1523 1523 1522 1522 1521 1521 1520 1518 1517 1516 1515 1515 1514 1512 1511 1510 1508 1506 1504 1502 1500 1498 1496 1495 1493 1492 1490 1488 1486 1484 1482 1481 1480 1478 1476 1474 1472 1469 1466 1464 1462 1460 1458 1458 1458 1458 1458 1458 1457 1457
1520 1520 1522 1522 1522 1523 1523 1523 1523 1522 1522 1523 1522 1522 1521 1520 1520 1520 1519 1518 1517 1515 1514 1514 1513 1512 1511 1510 1508 1507 1505 1503 1501 1499 1497 1495 1494 1492 1491 1489 1487 1485 1483 1481 1480 1479 1477 1475 1472 1470 1467 1464 1461 1459 1457 1455 1455 1455 1454 1454 1454 1453 1452
1519 1519 1520 1520 1521 1522 1522 1522 1522 1521 1521 1521 1521 1520 1520 1519 1519 1518 1517 1516 1515 1514 1513 1513 1512 1510 1510 1509 1507 1506 1504 1502 1501 1498 1496 1494 1493 1492 1490 1489 1487 1485 1483 1481 1480 1478 1476 1473 1471 1467 1464 1461 1459 1457 1455 1453 1452 1452 1451 1451 1450 1449 1448
1517 1517 1518 1519 1520 1520 1521 1521 1520 1519 1519 1519 1519 1519 1518 1518 1517 1516 1516 1515 1514 1513 1512 1511 1510 1509 1508 1507 1506 1505 1503 1502 1500 1498 1496 1494 1492 1491 1490 1488 1487 1485 1483 1481 1479 1477 1475 1473 1470 1466 1462 1459 1457 1455 1453 1452 1451 1449 1449 1448 1446 1445 1444
1515 1515 1517 1518 1519 1519 1519 1519 1518 1518 1518 1518 1518 1518 1517 1517 1516 1515 1515 1514 1513 1512 1511 1510 1509 1508 1507 1506 1504 1503 1502 1500 1499 1497 1496 1494 1492 1490 1489 1487 1485 1483 1482 1480 1478 1476 1474 1472 1469 1465 1462 1458 1455 1453 1452 1450 1449 1447 1446 1444 1442 1441 1439
1513 1514 1516 1517 1517 1517 1517 1516 1516 1516 1516 1516 1517 1516 1516 1515 1515 1514 1514 1513 1512 1511 1510 1509 1508 1507 1506 1505 1503 1502 1500 1499 1498 1496 1495 1493 1491 1489 1488 1486 1484 1481 1480 1478 1476 1475 1473 1470 1468 1464 1461 1458 1455 1452 1450 1449 1448 1445 1443 1441 1438 1436 1435
1511 1513 1514 1515 1515 1515 1514 1514 1514 1514 1515 1515 1515 1515 1515 1514 1513 1513 1513 1512 1511 1510 1509 1509 1508 1507 1505 1504 1502 1501 1499 1498 1497 1495 1494 1492 1490 1489 1487 1485 1483 1480 1478 1476 1475 1473 1471 1469 1466 1463 1461 1457 1454 1451 1449 1447 1445 1443 1441 1438 1435 1433 1430
1510 1511 1511 1512 1513 1512 1513 1512 1512 1513 1514 1514 1514 1513 1513 1513 1512 1512 1511 1511 1510 1509 1508 1508 1507 1506 1505 1503 1502 1500 1498 1497 1495 1494 1493 1491 1489 1487 1486 1485 1482 1480 1477 1475 1473 1471 1469 1467 1465 1462 1460 1457 1454 1451 1448 1445 1443 1440 1438 1435 1432 1430 1427
1508 1509 1509 1510 1510 1510 1511 1511 1511 1512 1512 1513 1512 1512 1511 1511 1511 1510 1510 1509 1509 1508 1507 1506 1506 1505 1504 1502 1501 1499 1497 1496 1494 1493 1491 1489 1487 1486 1485 1484 1482 1479 1477 1474 1472 1470 1468 1466 1464 1462 1460 1457 1454 1451 1447 1445 1442 1438 1436 1432 1429 1426 1423
1506 1506 1507 1507 1508 1508 1508 1509 1510 1511 1511 1511 1511 1510 1510 1510 1509 1509 1509 1508 1507 1506 1506 1505 1505 1504 1503 1502 1500 1498 1496 1494 1493 1492 1490 1488 1486 1485 1484 1483 1481 1478 1476 1473 1471 1469 1467 1465 1463 1462 1460 1457 1454 1451 1448 1445 1441 1438 1434 1430 1426 1423 1421
1503 1504 1504 1505 1505 1506 1506 1507 1508 1509 1509 1509 1509 1509 1508 1508 1508 1507 1507 1506 1506 1505 1505 1504 1504 1503 1502 1501 1499 1497 1495 1493 1492 1490 1489 1487 1485 1483 1482 1481 1479 1477 1475 1473 1471 1469 1466 1465 1464 1462 1460 1458 1455 1452 1449 1445 1441 1437 1433 1429 1425 1422 1419
1501 1502 1502 1502 1503 1504 1505 1506 1506 1507 1507 1507 1507 1507 1507 1506 1506 1505 1505 1504 1504 1503 1503 1503 1502 1502 1501 1500 1498 1496 1494 1492 1491 1489 1488 1486 1484 1482 1481 1479 1478 1477 1474 1472 1470 1468 1466 1465 1463 1462 1460 1458 1455 1452 1448 1445 1441 1438 1434 1430 1425 1422 1419
1500 1500 1500 1501 1502 1503 1503 1504 1504 1504 1505 1505 1505 1505 1505 1505 1504 1503 1503 1502 1502 1501 1501 1501 1500 1500 1499 1498 1497 1495 1493 1491 1489 1488 1486 1485 1483 1481 1480 1478 1477 1476 1474 1472 1470 1468 1466 1464 1463 1462 1460 1458 1455 1452 1449 1446 1443 1439 1436 1432 1427 1423 1420
1498 1499 1499 1500 1501 1501 1501 1502 1501 1502 1502 1503 1503 1503 1503 1503 1502 1501 1501 1500 1500 1499 1499 1499 1499 1498 1497 1496 1495 1494 1492 1490 1488 1486 1485 1483 1482 1481 1479 1477 1476 1475 1474 1472 1470 1468 1466 1464 1463 1462 1460 1458 1456 1453 1450 1448 1444 1442 1439 1435 1431 1428 1423
1497 1498 1498 1499 1499 1499 1499 1499 1499 1499 1500 1501 1501 1501 1501 1501 1500 1500 1499 1498 1498 1497 1497 1497 1497 1496 1496 1495 1493 1492 1491 1489 1487 1485 1484 1483 1481 1480 1479 1477 1476 1475 1473 1472 1470 1468 1466 1464 1463 1462 1461 1458 1456 1454 1451 1449 1446 1444 1441 1438 1435 1432 1427
1496 1497 1497 1497 1497 1497 1497 1497 1497 1497 1498 1499 1499 1499 1499 1499 1499 1498 1497 1496 1496 1495 1495 1495 1495 1495 1494 1493 1492 1491 1489 1487 1486 1484 1482 1482 1480 1479 1478 1477 1476 1474 1473 1472 1470 1468 1467 1465 1463 1462 1460 1458 1456 1454 1452 1450 1448 1446 1443 1440 1438 1435 1432
1495 1495 1496 1495 1495 1495 1495 1495 1495 1496 1496 1496 1497 1497 1498 1498 1497 1496 1496 1495 1494 1494 1494 1494 1494 1493 1493 1492 1491 1489 1488 1486 1484 1483 1481 1481 1480 1479 1478 1476 1475 1474 1472 1471 1470 1469 1467 1465 1463 1461 1460 1458 1456 1454 1453 1451 1449 1447 1445 1443 1440 1438 1436
1493 1494 1494 1493 1494 1494 1493 1494 1494 1494 1494 1494 1495 1495 1495 1496 1495 1495 1494 1493 1492 1492 1492 1492 1492 1492 1492 1491 1490 1488 1487 1485 1483 1482 1481 1480 1479 1478 1477 1476 1475 1474 1472 1471 1470 1468 1467 1465 1463 1461 1460 1458 1456 1455 1453 1452 1450 1448 1446 1445 1443 1441 1439
1490 1491 1491 1491 1492 1492 1492 1492 1492 1492 1492 1493 1493 1493 1493 1493 1493 1493 1492 1492 1491 1491 1491 1490 1490 1490 1490 1490 1488 1487 1486 1484 1483 1481 1480 1479 1478 1477 1476 1475 1474 1473 1472 1471 1469 1468 1466 1465 1463 1461 1459 1458 1456 1455 1453 1452 1451 1449 1447 1446 1444 1443 1441
1488 1488 1488 1489 1490 1490 1490 1490 1490 1490 1490 1491 1491 1492 1491 1491 1491 1491 1490 1490 1490 1489 1488 1488 1488 1488 1488 1488 1487 1486 1485 1483 1482 1481 1480 1478 1478 1476 1475 1475 1474 1473 1471 1470 1468 1467 1466 1464 1462 1460 1459 1457 1456 1455 1453 1452 1451 1450 1448 1447 1446 1444 1443
1486 1487 1487 1488 1488 1488 1488 1488 1488 1488 1489 1489 1490 1490 1489 1489 1489 1489 1489 1489 1488 1487 1486 1486 1485 1486 1486 1486 1486 1484 1483 1482 1481 1480 1479 1478 1477 1475 1475 1474 1473 1472 1471 1469 1468 1466 1465 1463 1462 1460 1458 1457 1455 1454 1453 1452 1451 1450 1449 1448 1446 1445 1444
1485 1486 1486 1487 1486 1487 1487 1486 1486 1486 1487 1487 1488 1488 1488 1488 1487 1487 1487 1487 1486 1485 1484 1484 1483 1484 1485 1485 1484 1483 1482 1481 1481 1480 1479 1477 1476 1475 1474 1473 1472 1471 1470 1468 1467 1465 1464 1463 1461 1460 1458 1456 1455 1454 1453 1452 1451 1450 1449 1448 1447 1446 1445
1484 1484 1485 1485 1485 1485 1484 1484 1484 1485 1485 1486 1486 1486 1486 1486 1486 1486 1485 1485 1484 1484 1483 1482 1482 1483 1483 1483 1483 1482 1481 1480 1480 1479 1478 1477 1475 1474 1473 1472 1471 1470 1469 1467 1466 1465 1463 1462 1460 1459 1458 1456 1455 1453 1452 1451 1451 1450 1449 1448 1447 1446 1446
1482 1482 1483 1483 1483 1483 1483 1483 1483 1483 1484 1485 1485 1485 1484 1484 1484 1484 1483 1483 1483 1483 1482 1481 1481 1482 1482 1482 1481 1481 1480 1479 1479 1478 1477 1476 1475 1473 1472 1471 1470 1469 1468 1467 1466 1464 1463 1461 1460 1458 1457 1456 1455 1454 1452 1451 1450 1450 1449 1448 1447 1446 1446
1480 1480 1480 1481 1481 1481 1481 1481 1482 1482 1483 1483 1483 1483 1482 1482 1482 1482 1482 1482 1482 1481 1481 1480 1480 1480 1480 1480 1480 1479 1478 1478 1477 1477 1476 1475 1474 1473 1472 1470 1469 1468 1467 1466 1465 1464 1462 1461 1459 1458 1456 1455 1455 1454 1453 1452 1451 1450 1449 1448 1447 1447 1446
1477 1477 1478 1479 1479 1479 1479 1480 1480 1481 1482 1482 1482 1482 1481 1480 1481 1481 1481 1480 1480 1480 1479 1479 1478 1478 1478 1478 1478 1477 1477 1476 1476 1475 1474 1474 1473 1471 1470 1469 1468 1467 1465 1464 1463 1462 1461 1460 1459 1457 1456 1454 1453 1453 1453 1452 1451 1450 1449 1448 1447 1447 1446
1476 1476 1477 1477 1476 1477 1477 1478 1479 1480 1480 1481 1481 1480 1480 1479 1479 1479 1479 1479 1478 1478 1478 1477 1477 1477 1476 1476 1476 1476 1475 1475 1474 1473 1473 1472 1471 1470 1469 1467 1465 1464 1464 1463 1462 1461 1460 1459 1458 1457 1456 1455 1453 1452 1452 1451 1451 1450 1449 1448 1447 1446 1446
Wind_Speed
20 17 14 13 12 9 6 3 2 4 6 7 7 7 8 9 11 12 11 10 13 14 15 15 16 15 15 15 16 16 16 16 16 17 18 19 18 17 16 16 17 18 17 18 19 19 19 20 23 24 27 29 31 31 31 30 30 29 30 32 32 32 32
20 17 15 11 8 6 4 1 3 5 8 9 9 8 8 10 12 12 10 11 14 14 15 16 15 14 14 15 15 14 14 14 15 15 15 15 15 14 13 14 15 16 16 18 21 23 23 24 27 28 30 33 34 33 34 34 32 31 31 32 31 29 31
20 18 14 10 6 4 2 1 3 5 9 9 8 8 9 11 12 11 10 12 14 14 14 14 14 14 14 16 15 13 13 14 14 14 13 12 11 11 12 12 14 16 17 19 22 24 25 27 29 31 32 34 33 31 33 34 35 35 35 35 34 33 34
21 16 13 10 7 5 2 2 3 7 9 8 8 8 10 12 11 10 11 13 14 14 13 12 12 14 16 17 15 13 12 12 13 12 11 9 9 10 11 11 13 16 18 20 22 23 25 27 29 32 33 34 32 31 32 34 35 36 36 36 36 35 36
20 16 14 12 8 4 3 5 6 7 7 7 8 9 11 12 12 12 12 14 14 15 13 11 12 15 16 16 15 13 13 12 12 12 11 10 10 10 11 12 14 16 18 21 23 25 26 27 28 30 30 31 30 31 32 34 36 36 36 36 36 35 35
22 19 16 12 8 4 4 5 6 6 7 8 9 11 13 13 12 12 14 15 15 15 14 12 13 15 15 15 14 14 14 14 14 14 13 13 12 12 13 14 14 16 19 21 23 24 26 27 28 28 29 30 30 31 33 35 36 36 37 37 36 35 34
23 20 15 11 8 3 4 5 6 7 9 10 11 13 14 12 12 13 14 14 15 16 16 14 15 16 15 14 15 15 16 16 16 16 16 16 15 15 15 15 15 16 18 20 21 23 23 24 24 25 26 27 29 32 34 36 36 36 36 36 37 37 36
21 18 13 10 6 3 4 6 7 8 9 10 11 13 12 12 13 13 13 15 15 16 16 15 16 16 16 15 16 17 17 17 17 16 17 17 17 15 15 15 15 16 18 20 20 19 19 19 20 21 22 23 25 27 30 33 35 35 36 36 37 38 38
19 15 11 7 5 4 5 6 7 7 8 10 11 11 11 12 13 12 13 15 15 15 15 15 15 16 16 16 17 18 17 17 17 17 17 17 17 16 15 15 15 16 17 18 18 17 17 18 20 21 21 22 23 24 25 28 29 29 31 33 35 37 37
17 13 8 5 5 5 6 7 8 7 8 9 10 10 10 12 12 11 13 15 15 15 14 12 13 15 16 16 16 17 17 18 18 17 17 17 16 16 15 15 15 16 16 17 17 17 18 20 21 21 22 22 23 23 23 25 25 25 25 27 30 34 36
15 11 7 6 6 6 8 9 8 8 8 8 8 9 11 11 11 11 13 14 14 13 12 10 11 14 15 15 15 16 17 18 18 18 18 17 16 16 16 16 16 16 17 17 17 19 21 23 24 25 25 24 22 22 22 24 25 24 23 24 26 29 33
13 10 8 7 7 7 9 9 8 7 7 7 8 9 10 11 11 12 13 13 12 11 9 8 10 13 15 14 14 15 16 17 18 18 18 17 16 16 16 16 16 17 18 18 18 20 23 26 27 28 28 27 24 22 21 19 21 21 21 22 24 27 30
11 9 7 7 6 8 10 9 8 7 6 7 8 9 10 10 11 13 13 11 10 9 8 8 10 13 13 12 13 14 15 16 18 20 19 16 15 15 16 16 15 15 16 17 18 20 23 26 28 29 28 27 24 22 20 16 16 19 21 23 26 28 29
11 9 7 7 7 10 11 9 6 5 7 8 8 9 9 10 11 11 11 11 11 10 8 8 11 12 11 10 12 13 14 15 18 20 20 18 16 15 16 16 15 14 15 16 18 20 22 25 28 29 28 27 23 20 19 17 16 18 21 24 26 26 25
12 9 7 7 9 12 11 8 5 5 7 8 9 11 11 10 11 10 10 12 12 9 8 8 10 11 9 9 11 11 12 14 16 18 20 19 18 16 17 17 15 14 15 16 18 20 22 24 26 27 27 26 22 18 16 16 17 15 17 21 24 23 22
12 10 9 9 11 12 10 6 4 6 9 10 11 13 12 11 10 9 10 12 11 8 8 8 9 9 8 9 11 11 11 13 15 17 18 19 19 18 18 17 15 14 14 15 17 19 21 22 23 25 26 26 23 19 15 14 15 14 15 19 22 23 23
13 12 12 12 12 11 8 6 6 7 10 11 11 12 11 10 9 9 9 11 9 8 9 8 7 8 9 10 12 11 12 14 15 16 17 18 19 19 18 17 15 14 15 16 17 18 19 20 21 23 25 25 22 18 14 12 13 15 17 20 18 17 21
16 15 14 14 14 11 9 8 7 8 9 10 11 11 11 9 8 7 8 9 8 8 10 8 6 8 10 11 13 13 14 15 15 15 16 17 19 19 18 17 16 15 16 17 17 17 18 19 20 21 23 24 22 18 16 14 16 18 19 21 18 16 19
17 17 16 15 13 11 10 9 8 7 8 10 10 11 10 8 7 7 7 7 8 8 8 7 7 9 10 11 13 14 15 16 16 16 16 17 18 18 17 16 16 16 17 17 17 17 18 19 19 20 22 23 22 21 21 20 20 21 20 20 20 19 20
18 17 14 13 12 11 10 10 8 7 8 9 10 11 10 7 6 8 7 7 8 9 8 8 8 9 10 12 14 15 16 17 16 16 16 16 15 16 16 16 17 16 17 18 18 17 18 19 20 20 21 22 23 23 24 24 23 22 21 20 19 18 18
18 16 14 12 11 11 11 10 8 7 7 8 11 11 8 6 7 9 9 8 10 11 10 10 10 10 11 13 14 15 15 15 13 13 14 14 14 14 14 16 18 17 17 17 18 17 16 18 20 20 20 21 23 23 24 24 24 23 22 23 21 16 14
18 15 13 12 10 10 10 8 6 6 7 8 10 10 8 7 8 9 9 9 10 12 12 12 12 11 12 14 14 12 10 11 11 13 14 15 14 14 14 16 16 17 17 17 17 17 16 15 18 20 21 22 23 22 23 24 26 26 25 26 25 17 12
15 13 12 12 10 9 8 7 6 6 7 9 10 9 8 9 9 9 9 10 10 11 12 13 13 12 13 14 12 9 9 11 12 13 14 15 15 15 15 15 14 16 17 17 17 18 16 13 15 19 22 24 25 23 23 24 26 28 26 26 26 19 11
14 13 13 11 9 9 8 8 7 7 7 9 10 9 8 9 10 11 11 11 10 10 11 13 13 12 12 12 10 9 11 12 13 13 13 14 14 14 16 15 14 14 15 17 18 18 17 13 13 15 20 25 26 25 23 22 25 27 26 26 25 17 9
15 14 11 8 7 9 9 8 8 8 9 10 10 8 8 10 10 12 14 13 12 11 11 13 12 11 11 10 9 10 12 13 13 13 13 13 13 13 14 14 13 11 13 16 17 17 16 14 13 15 19 23 25 25 23 21 23 25 25 24 24 21 17
16 14 10 8 9 10 9 9 10 10 10 10 10 9 9 9 10 12 14 14 13 12 12 11 11 10 10 10 10 11 12 13 13 12 13 14 13 11 11 12 12 11 13 15 16 15 16 15 13 15 18 20 22 22 22 20 20 22 24 23 23 24 25
16 14 11 10 11 10 11 12 12 11 9 8 8 10 10 10 10 12 12 12 13 13 11 10 8 8 9 10 10 11 11 12 12 12 12 13 12 9 9 10 11 12 13 14 13 14 16 16 15 16 18 18 18 18 19 19 18 19 22 22 22 23 24
16 15 13 12 12 12 13 13 11 10 8 7 7 8 9 9 11 12 11 12 12 10 9 8 7 7 9 10 9 10 11 12 11 10 10 10 9 9 9 10 12 12 12 11 11 14 18 18 16 16 16 17 16 15 16 18 17 17 19 20 20 20 20
17 17 16 15 14 13 12 12 11 10 9 8 7 7 8 10 12 12 12 12 10 8 8 7 7 8 9 10 10 10 10 11 10 10 9 8 7 8 10 11 12 12 11 10 12 16 18 18 17 16 15 15 15 14 14 17 18 16 16 17 18 18 18
16 17 16 16 15 14 13 13 13 12 11 10 8 7 9 12 13 12 12 11 8 7 8 8 9 10 9 10 10 10 10 11 9 8 8 7 7 9 11 12 12 12 11 11 13 15 16 16 18 18 15 14 14 14 14 16 17 17 16 16 16 16 16
16 16 15 16 15 15 15 13 13 13 13 12 10 10 12 13 12 12 13 11 9 9 10 10 10 10 9 9 9 9 10 10 7 6 8 8 9 10 10 12 13 13 12 12 13 15 15 17 19 19 17 15 14 13 13 13 15 16 17 16 16 15 15
14 13 14 16 16 16 15 13 14 16 16 15 14 14 14 12 10 11 12 11 10 10 11 12 12 10 8 7 8 9 10 7 5 7 10 10 9 9 10 12 13 14 14 14 14 14 14 15 17 18 19 18 15 12 12 12 13 14 16 16 16 15 14
14 14 15 16 16 16 14 13 14 16 16 16 14 14 14 12 9 8 9 9 9 9 10 11 11 10 7 6 7 9 9 5 6 10 13 12 12 12 11 12 13 13 15 15 14 14 13 14 15 17 17 18 17 13 11 11 12 14 15 15 14 14 14
14 14 14 14 14 14 14 14 14 14 15 15 13 13 13 11 8 7 7 8 9 9 9 7 7 8 7 7 7 9 8 6 8 12 14 14 15 14 13 12 12 14 17 16 14 14 14 13 15 16 16 17 17 15 14 12 12 13 14 14 14 13 13
13 12 11 11 10 11 12 13 14 14 15 14 12 11 12 10 8 8 8 8 9 7 3 3 5 6 8 7 7 9 9 8 10 12 13 14 16 15 13 13 15 17 18 17 14 13 13 13 14 15 15 15 15 15 14 13 12 13 14 14 14 13 12
13 13 11 10 9 10 11 12 13 14 14 12 10 10 10 9 8 7 8 10 10 7 5 7 6 7 8 7 7 9 9 9 10 11 12 13 15 16 16 16 16 17 18 17 14 12 12 13 14 13 13 13 12 12 12 12 12 13 13 13 13 13 12
13 12 11 11 11 11 11 12 13 14 12 10 8 8 8 7 6 6 7 9 9 8 8 9 8 8 8 7 7 7 8 9 11 12 14 14 15 16 18 18 17 15 14 16 15 13 12 13 14 13 11 10 10 10 10 10 12 12 13 13 13 13 12
12 12 12 12 12 11 11 12 12 11 10 9 9 8 8 8 8 8 9 10 10 10 10 11 11 11 10 9 8 8 9 12 14 16 17 16 15 15 17 19 19 15 13 14 15 15 15 14 14 14 13 11 10 10 10 9 9 11 12 13 13 12 12
Wind_Direction
164 167 168 163 165 175 191 219 273 275 256 254 265 264 260 274 295 310 321 328 330 331 329 326 323 325 331 335 337 338 337 336 336 336 330 313 295 280 272 270 272 274 275 274 271 266 264 266 268 269 272 273 273 272 270 268 267 268 271 274 270 262 260
163 164 162 158 164 178 195 258 322 265 248 255 259 257 266 287 308 318 319 325 334 337 334 330 330 335 342 346 350 352 350 348 348 353 353 332 307 288 279 282 286 285 281 279 278 276 274 272 272 272 273 275 277 277 274 272 272 272 272 273 273 271 264
163 166 164 165 173 173 185 327 328 251 241 251 256 263 286 305 318 317 312 327 339 340 337 334 332 334 339 343 352 359 360 357 353 353 355 347 329 309 299 297 297 293 287 283 282 280 280 279 278 275 272 272 274 275 275 274 272 270 269 268 267 268 264
165 169 171 174 174 161 192 276 269 238 239 251 261 283 306 318 321 312 312 331 342 341 340 338 331 330 335 341 350 357 357 355 349 345 343 339 329 316 309 303 295 289 285 282 280 279 279 279 278 277 274 273 272 272 271 271 270 267 264 263 262 262 260
168 173 176 176 170 168 222 257 253 237 242 261 277 302 318 323 318 309 316 332 343 344 340 334 332 333 335 340 345 347 347 346 341 337 333 327 319 311 307 301 294 290 287 285 285 285 285 282 282 282 281 279 276 272 269 267 268 267 263 260 259 260 260
172 177 179 179 175 185 242 252 247 244 260 279 292 309 319 323 320 318 325 332 340 344 338 330 333 337 339 342 344 343 341 340 338 335 330 324 316 309 305 302 299 298 297 295 293 292 291 290 289 288 288 286 281 275 271 268 266 266 264 262 259 261 262
177 180 182 185 182 195 245 249 257 268 281 288 298 312 320 327 328 327 331 333 337 341 338 331 334 341 346 348 347 345 341 337 336 334 330 326 321 313 307 305 304 306 305 303 301 299 298 297 296 295 293 290 284 277 272 268 265 266 266 263 259 259 260
182 184 183 185 186 208 248 261 269 274 284 293 304 315 323 331 333 332 332 334 335 337 335 331 332 340 347 348 346 344 343 341 338 334 331 328 326 324 318 314 314 314 311 307 306 308 308 308 307 305 301 298 292 283 273 267 266 267 266 262 259 259 260
182 183 182 184 202 236 265 275 272 276 292 302 309 317 325 330 331 331 329 330 332 332 330 328 327 334 341 343 343 343 345 345 341 335 333 331 330 332 331 329 328 326 321 318 317 319 319 318 317 315 311 305 297 287 276 270 269 269 265 260 258 259 259
177 178 178 193 220 244 269 276 275 283 297 304 312 320 324 325 326 327 326 326 328 325 322 322 323 331 337 338 342 344 346 346 341 336 335 332 330 333 337 337 337 338 336 334 333 331 329 328 328 326 320 312 302 292 283 275 271 270 266 260 257 257 257
171 174 184 209 224 248 268 272 274 282 292 302 313 317 317 318 320 323 323 324 324 320 316 318 324 330 333 336 342 345 345 345 341 336 334 331 329 330 334 336 337 341 346 347 343 337 335 336 335 331 326 319 311 304 293 280 270 265 263 261 259 257 256
173 180 193 211 226 254 264 261 261 271 288 304 314 316 315 316 318 320 321 323 326 321 315 314 321 326 330 336 345 346 345 344 340 335 331 328 328 329 333 335 333 337 345 349 344 339 338 340 339 336 330 325 318 312 308 292 270 260 258 260 262 261 261
179 186 199 219 237 249 247 242 248 269 296 313 323 326 322 319 318 317 320 326 330 325 316 311 318 328 335 342 348 349 349 348 345 341 336 330 330 332 333 332 328 332 345 350 344 341 341 341 340 338 335 330 322 314 314 306 277 263 261 264 266 267 267
182 191 205 221 228 229 229 230 246 285 310 319 329 334 332 326 321 321 326 331 332 329 321 320 327 334 341 349 352 352 354 356 355 353 350 344 337 333 333 332 329 336 348 351 346 343 343 341 339 339 339 337 331 319 311 305 291 276 270 272 274 270 269
188 195 196 203 211 216 220 228 260 307 318 321 331 335 333 328 323 328 334 332 333 336 335 338 341 342 348 356 356 353 357 2 2 359 356 352 344 334 332 332 331 336 347 352 352 348 343 339 340 342 343 342 338 328 314 304 297 285 271 272 271 266 270
191 190 188 198 205 210 218 236 280 316 319 320 326 329 328 322 323 332 335 332 338 349 352 351 347 348 359 360 355 354 355 358 360 356 352 352 349 340 335 333 330 330 339 348 353 351 344 341 343 347 348 348 344 336 325 313 308 300 282 277 273 266 271
188 187 195 208 209 213 226 248 281 306 313 315 319 323 322 318 325 334 331 329 337 351 355 351 346 352 0 356 350 351 350 348 351 351 347 347 347 344 341 342 340 335 334 338 345 348 347 346 349 352 353 354 350 342 338 332 325 317 303 297 295 277 272
188 194 206 216 217 223 235 251 276 291 301 310 315 323 324 322 329 331 322 326 337 347 350 346 337 340 346 344 341 339 339 340 342 342 341 341 341 342 342 345 350 349 345 343 345 349 352 352 353 357 358 358 354 351 355 349 333 327 316 306 306 295 281
195 205 212 218 222 231 244 254 270 279 289 305 314 323 326 326 332 326 314 323 335 342 345 337 324 325 329 333 334 332 331 334 335 333 335 336 337 340 342 341 347 353 352 351 349 346 350 354 354 357 359 359 358 356 356 350 337 333 327 314 307 298 290
204 207 209 217 226 235 245 250 257 267 283 307 319 322 323 329 338 331 319 320 327 332 337 333 326 326 330 334 334 330 327 328 329 332 339 342 339 342 344 340 341 347 349 351 350 344 348 354 354 355 358 358 358 357 356 352 347 341 336 329 318 301 292
200 202 206 216 227 233 238 238 243 263 291 316 319 314 313 325 332 328 323 316 312 315 321 326 329 331 333 332 331 329 327 326 332 340 349 354 350 346 343 339 340 344 343 345 347 343 346 353 354 356 358 356 356 358 0 1 357 351 344 339 332 311 296
197 203 211 220 229 228 228 233 253 289 305 309 308 305 306 315 317 317 321 314 303 304 307 311 319 324 324 326 330 334 336 336 341 344 346 350 351 348 341 335 339 344 342 343 348 350 349 352 358 2 2 357 354 356 3 7 4 359 355 351 344 331 313
205 209 216 221 223 221 229 249 268 285 290 290 297 300 299 300 298 298 309 309 301 301 299 300 309 314 316 321 330 338 342 339 338 337 337 339 344 349 346 339 336 342 347 349 352 353 350 345 356 5 2 356 356 359 3 9 8 5 6 4 357 347 333
211 216 216 212 210 216 232 245 242 244 265 278 283 288 288 289 286 284 292 298 297 296 294 295 303 308 310 318 327 333 336 337 334 332 333 335 339 348 352 346 338 340 351 356 353 353 353 344 342 352 352 349 353 360 4 9 11 10 14 17 14 10 16
212 211 206 200 214 230 232 224 218 227 249 263 268 274 284 286 281 279 285 289 287 285 288 293 301 308 313 318 327 330 331 333 333 331 331 331 336 347 354 353 348 345 349 354 353 353 357 355 341 337 340 341 346 355 3 9 14 14 17 23 25 27 45
210 204 204 216 230 233 222 215 221 232 242 251 258 270 280 281 279 282 285 285 282 281 287 293 300 309 313 313 320 328 331 333 333 331 331 332 333 341 353 358 359 356 349 350 354 353 355 3 1 351 348 343 340 350 1 7 13 16 17 21 25 29 38
218 215 222 233 234 224 216 220 227 234 241 244 253 267 276 278 282 288 289 288 286 287 292 296 298 306 309 308 317 330 337 338 334 330 332 336 335 341 357 3 358 352 348 349 353 351 348 354 360 1 2 357 348 351 2 8 14 18 19 19 23 29 34
214 214 220 226 223 214 214 221 227 236 241 232 236 257 269 277 290 296 295 294 296 299 302 298 289 294 305 311 321 333 340 345 348 349 347 346 345 348 358 359 351 345 346 346 345 345 344 344 345 347 355 2 3 3 8 13 16 19 21 22 23 28 32
209 217 224 222 212 209 218 233 242 245 238 222 229 259 277 287 298 302 298 298 302 304 304 298 283 282 297 312 319 326 333 340 352 2 357 348 349 350 351 353 349 347 351 351 344 344 344 344 344 341 341 352 7 15 15 17 20 21 20 22 24 26 28
214 221 224 218 214 222 238 250 254 248 232 224 241 279 290 291 297 300 296 295 295 289 286 288 283 277 283 302 313 318 325 328 334 349 350 344 343 342 344 352 354 353 356 355 350 349 349 348 349 348 344 346 359 11 14 16 22 24 22 21 24 26 28
221 223 222 218 221 233 245 255 258 248 238 239 257 282 290 287 291 297 296 292 292 285 274 272 273 268 269 290 310 322 326 323 323 339 344 342 342 343 349 359 3 1 360 356 352 351 350 349 349 349 348 347 352 360 5 8 16 20 21 20 22 26 29
221 217 216 217 225 238 249 254 251 245 245 252 262 278 288 283 282 296 301 297 293 286 276 269 263 251 253 279 305 324 332 329 333 348 350 349 350 355 360 2 2 1 0 360 358 355 351 350 349 349 350 351 351 352 356 358 4 10 13 14 16 20 25
220 215 219 227 240 252 258 257 251 248 251 255 262 277 286 278 273 295 306 296 283 284 287 277 255 238 245 276 301 319 331 330 331 345 352 353 354 355 354 354 356 357 356 356 360 3 360 355 353 351 352 354 353 350 348 351 355 358 1 3 5 9 14
229 230 235 243 252 260 263 264 261 254 251 255 265 280 284 273 263 279 292 283 279 290 295 275 238 230 246 269 299 320 328 318 320 338 350 351 352 353 350 346 349 353 353 352 354 358 360 358 356 353 350 351 354 353 349 347 347 348 351 354 356 358 1
230 234 236 238 244 253 259 262 260 255 255 261 270 280 279 271 264 270 278 280 285 293 277 214 213 234 246 262 298 320 324 317 319 331 342 346 351 357 355 349 346 346 347 347 348 351 354 355 355 353 347 346 350 353 352 350 347 345 347 351 353 355 357
231 232 229 225 232 242 248 252 253 253 256 262 269 276 280 279 278 280 282 286 290 280 224 210 227 239 244 262 292 306 312 314 315 322 330 337 345 354 357 354 349 345 344 343 344 345 347 347 349 349 344 341 342 346 351 354 351 346 344 347 349 352 354
232 237 238 240 248 254 253 250 246 249 256 262 266 273 279 279 277 277 279 284 287 272 240 229 232 234 241 260 278 287 296 304 306 311 316 321 330 344 350 349 346 344 343 344 344 343 340 339 342 344 342 336 332 332 337 345 350 349 345 342 343 345 347
247 254 258 260 262 260 253 245 243 249 263 270 270 273 278 275 273 276 279 281 280 271 257 246 240 240 246 258 270 282 296 305 309 311 310 311 320 335 343 341 339 338 338 341 345 347 343 338 338 342 342 335 327 323 322 325 335 344 347 346 343 341 341